[[{"header":{"parameterUnit":"m.s-1","parameterCategory":1,"la1":30.2992,"la2":30.254,"lo1":-89.0895,"lo2":-89.0443,"dy":0.0025,"dx":0.0025,"nx":19,"ny":19,"refTime":"2026-04-02T21:00:00:Z","depth":0,"parameterNumber":2,"parameterNumberName":"U-component_of_WINDS"},"data":[0,0,0,-5.3227,-5.323,-5.3347,-5.3347,-5.3528,-5.353,0,0,0,0,0,0,0,0,0,0,0,-5.321,-5.3212,-5.3226,-5.323,-5.3347,-5.3347,-5.3527,-5.353,0,0,0,0,0,0,0,0,0,0,0,-5.3209,-5.3211,-5.3213,-5.323,-5.3347,-5.3347,-5.3527,-5.3428,0,0,0,0,0,0,0,0,0,0,-5.3308,-5.331,-5.3211,-5.3214,-5.3231,-5.3347,-5.3347,-5.3422,-5.3434,-5.3488,0,-5.354,0,-5.3538,-5.3544,-5.3544,0,0,0,-5.3216,-5.3301,-5.3317,-5.3214,-5.3232,-5.3347,-5.329,-5.3428,-5.3441,-5.3503,-5.3542,-5.3548,-5.3541,-5.3545,-5.3546,-5.3904,-5.3906,0,0,-5.321,-5.324,-5.3308,-5.3326,-5.331,-5.3287,-5.3294,-5.3436,-5.348,-5.3543,-5.3552,-5.3544,-5.3546,-5.3548,-5.3902,-5.3905,0,0,0,-5.32,-5.3236,-5.3248,-5.3319,-5.3338,-5.329,-5.3299,-5.3474,-5.3475,-5.3553,-5.3546,-5.3548,-5.355,-5.3899,-5.3903,-5.4047,0,0,0,-5.3196,-5.3231,-5.3246,-5.3265,-5.3336,-5.3407,-5.3334,-5.3465,-5.348,-5.3545,-5.3548,-5.3552,-5.3897,-5.3901,-5.4038,-5.4109,0,0,0,-5.3196,-5.323,-5.3254,-5.3267,-5.3318,-5.3404,-5.3413,-5.3468,-5.3477,-5.3544,-5.3553,-5.3895,-5.39,-5.4029,-5.4095,-5.4213,0,0,0,-5.3204,-5.3378,-5.3256,-5.3448,-5.3318,-5.3494,-5.3412,-5.3541,-5.3616,-5.3549,-5.3897,-5.3903,-5.4026,-5.4086,-5.4204,-5.4317,-5.4367,0,0,-5.344,-5.3407,-5.3518,-5.3413,-5.3618,-5.3473,-5.37,-5.3739,-5.3717,-5.3843,-5.3852,-5.4041,-5.4094,-5.4211,-5.464,-5.468,0,0,0,-5.3603,-5.3683,-5.3731,-5.3805,-5.3842,-5.3879,-5.3881,-5.3897,-5.4003,-5.3788,-5.4115,-5.4146,-5.4213,-5.4265,-5.43,-5.4356,-5.3929,-5.3928,-5.3927,-5.3977,-5.3943,-5.4125,-5.4106,-5.418,-5.4183,-5.424,-5.4262,-5.4202,-5.4282,-5.4317,-5.4582,-5.4645,-5.467,-5.4729,-5.4376,-5.4376,-5.4377,-5.4377,-5.4319,-5.4427,-5.4351,-5.4499,-5.4463,-5.4587,-5.4599,-5.4555,-5.4666,-5.4551,-5.4608,-5.4484,-5.4715,-5.4765,-5.4388,-5.4386,-5.4384,-5.4383,-5.4383,-5.4559,-5.4605,-5.4623,-5.4731,-5.4818,-5.4794,-5.4906,-5.4868,-5.4834,-5.4891,-5.4926,-5.4924,-5.4916,-5.4911,-5.4912,-5.4913,-5.4914,-5.4915,-5.4915,-5.4799,-5.4816,-5.4914,-5.4973,-5.5018,-5.5073,-5.5083,-5.5127,-5.5166,-5.513,-5.513,-5.5065,-5.4745,-5.4664,-5.4929,-5.4927,-5.4925,-5.4924,-5.4923,-5.5154,-5.507,-5.5222,-5.5269,-5.5336,-5.5427,-5.538,-5.5474,-5.5505,-5.5562,-5.5487,-5.5257,-5.522,-5.5192,-5.5125,-5.5494,-5.5494,-5.5494,-5.5494,-5.5355,-5.5335,-5.5485,-5.5562,-5.5633,-5.5609,-5.5785,-5.5797,-5.5795,-5.5813,-5.5755,-5.5664,-5.5638,-5.5616,-5.558,-5.5517,-5.5976,-5.5977,-5.5977,-5.5572,-5.5558,-5.5713,-5.5713,-5.5765,-5.581,-5.5976,-5.6068,-5.6049,-5.5996,-5.5826,-5.5806,-5.5659,-5.5613,-5.5552,-5.5496,-5.5379,0,0]},{"header":{"parameterUnit":"m.s-1","parameterCategory":1,"la1":30.2992,"la2":30.254,"lo1":-89.0895,"lo2":-89.0443,"dy":0.0025,"dx":0.0025,"nx":19,"ny":19,"refTime":"2026-04-02T21:00:00:Z","depth":0,"parameterNumber":3,"parameterNumberName":"V-component_of_WINDS"},"data":[0,0,0,0.5589,0.5588,0.5557,0.5557,0.5524,0.5524,0,0,0,0,0,0,0,0,0,0,0,0.5602,0.5602,0.5589,0.5588,0.5557,0.5557,0.5524,0.5524,0,0,0,0,0,0,0,0,0,0,0,0.5602,0.5602,0.5602,0.5588,0.5557,0.5557,0.5524,0.5545,0,0,0,0,0,0,0,0,0,0,0.5574,0.559,0.5602,0.5602,0.5588,0.5557,0.5557,0.5546,0.5544,0.5541,0,0.554,0,0.5532,0.5522,0.5522,0,0,0,0.5585,0.5592,0.558,0.5602,0.5587,0.5557,0.557,0.5545,0.5542,0.5539,0.554,0.5538,0.5531,0.5522,0.5522,0.5521,0.5521,0,0,0.5586,0.5598,0.5582,0.5579,0.5584,0.5571,0.5569,0.5543,0.5545,0.554,0.5537,0.5531,0.5522,0.5522,0.5521,0.5521,0,0,0,0.5594,0.5599,0.5588,0.558,0.5574,0.557,0.5568,0.5546,0.5541,0.5537,0.553,0.5522,0.5522,0.552,0.5521,0.554,0,0,0,0.5594,0.5604,0.5589,0.5596,0.5575,0.556,0.5572,0.5543,0.554,0.5531,0.5522,0.5521,0.552,0.5521,0.5539,0.5547,0,0,0,0.5602,0.5604,0.5601,0.5597,0.5584,0.556,0.5554,0.5542,0.5536,0.5522,0.5521,0.552,0.552,0.5538,0.5545,0.5551,0,0,0,0.5614,0.5617,0.5602,0.5603,0.5584,0.5572,0.5554,0.5544,0.5534,0.5522,0.552,0.5521,0.5538,0.5544,0.555,0.5558,0.5562,0,0,0.5624,0.5619,0.5619,0.5605,0.5599,0.5576,0.5573,0.5553,0.554,0.5528,0.5528,0.5539,0.5545,0.5551,0.5582,0.5585,0,0,0,0.5626,0.5627,0.5623,0.5615,0.5601,0.559,0.5569,0.5562,0.5552,0.5536,0.5543,0.5546,0.5548,0.5551,0.5554,0.5557,0.5523,0.5523,0.5522,0.5656,0.5643,0.5643,0.5626,0.5619,0.56,0.5593,0.558,0.5566,0.5568,0.5564,0.5585,0.5589,0.5591,0.5593,0.5567,0.5567,0.5567,0.5567,0.5671,0.567,0.5655,0.5649,0.5635,0.563,0.5613,0.5604,0.5598,0.5586,0.5587,0.5575,0.5595,0.5597,0.5568,0.5568,0.5568,0.5568,0.5568,0.5689,0.5686,0.5679,0.5669,0.5664,0.5647,0.5643,0.563,0.5617,0.5619,0.5614,0.5614,0.5612,0.5618,0.5618,0.5618,0.5618,0.5618,0.5618,0.571,0.5702,0.57,0.5689,0.5684,0.5676,0.566,0.5654,0.5645,0.5636,0.5636,0.5623,0.56,0.5595,0.5619,0.5619,0.5619,0.5619,0.5619,0.5729,0.5724,0.5721,0.5717,0.5704,0.5701,0.5685,0.5677,0.5671,0.567,0.5658,0.5643,0.5636,0.5633,0.5629,0.566,0.566,0.566,0.566,0.5744,0.574,0.5737,0.5731,0.5724,0.5711,0.5711,0.57,0.5687,0.5683,0.5677,0.567,0.5668,0.5661,0.5658,0.5654,0.5691,0.5691,0.5692,0.5756,0.5751,0.5753,0.5741,0.5732,0.5724,0.5724,0.5719,0.5702,0.5693,0.568,0.5678,0.5667,0.5664,0.5652,0.5647,0.5639,0,0]}]]